星链-6278 (STARLINK-6278 )

导读

STARLINK-6278是美国太空探索技术公司SpaceX星链(Starlink)卫星互联网星座的成员,于2023年5月4日发射,属于低轨互联网卫星。星链项目旨在为全球偏远、网络欠发达区域提供低延迟、高速率的宽带互联网服务,这颗卫星入轨后将与其他星链卫星组网,共同推进星座覆盖能力的完善,支撑全球卫星互联网服务的部署。

基本信息
目录编号:
56412
目录名称:
STARLINK-6278
国际标识:
2023-061AQ
轨道中心:
EARTH
卫星名称:
星链-6278
卫星全名:
星链-6278 (STARLINK-6278 )
卫星状态:
在轨 (已飞行1137 天)
发射日期:
2023-05-04 UTC
国别 :
美国 (US)
星等 :
--
轨道信息
数据来源 国际轨道数据 AOE轨道数据
星历时间 2026-06-14T13:49:36+0800
14小时前
查看轨道信息
2026-06-11T08:00:00+0800
3天前
查看轨道信息
半长轴 6861.2km 6861.19km
偏心率 0.0001122 0.0000962
轨道倾角 43.004° 43.005°
近地点辐角 259.401° 214.077°
升交点赤经 1.540° 19.857°
平近点角 100.672° 292.134°
近地点 482.293km 482.392km
远地点 483.833km 483.714km
周期 94.267分钟 94.267分钟
每日圈数 15.275754 15.27579
详细信息
固有亮度:
5
最大亮度:
2.5
卫星平台:
Starlink v1.5
覆盖范围:
全球
运营商:
太空探索技术公司
运营商所在国:
美国
制造商(研发单位):
太空探索技术公司
制造商所在国:
美国
使用方式:
暂无
卫星简介
星链(Starlink)计划是由太空探索技术公司(SpaceX)提出的一个巨型低轨卫星互联网星座项目,计划在2019年至2024年间在太空搭建由约1.2万颗卫星组成的“星链”网络,其中1584颗将部署在地球上空550千米处的近地轨道,并从2020年开始工作。该卫星仍在工作。
2D轨道图
3D轨道图
轨道高度分析图
轨道倾角分析图
轨道综合分析图
查看轨道综合分析图